Greensboro, NC

8:34 AM EST on November 23, 2017 (GMT -0500)
Piedmont Triad International

Weather History for KGSO - January, 2013

Change the Weather History Date:

Tuesday, January 15, 2013

  Actual Average Record
Temperature  
Mean Temperature 46 °F 39 °F  
Max Temperature 52 °F 48 °F 77 °F (1928)
Min Temperature 40 °F 29 °F 6 °F (1982)
Degree Days  
Heating Degree Days 19 26  
Month to date heating degree days 279 390  
Since 1 July heating degree days 1613 1804  
Cooling Degree Days 0 0  
Month to date cooling degree days 0 0  
Year to date cooling degree days 0 0  
Moisture  
Dew Point 42 °F    
Average Humidity 96    
Maximum Humidity 100    
Minimum Humidity 92    
Precipitation  
Precipitation 0.19 in 0.10 in 1.68 in (1918)
Month to date precipitation 1.42 1.51  
Year to date precipitation 1.42 1.51  
Snow  
Snow 0.00 in 0.20 in 5.40 in (1966)
Month to date snowfall 0.0 1.6  
Since 1 July snowfall 0.0 2.5  
Snow Depth 0.00 in    
Sea Level Pressure  
Sea Level Pressure 30.16 in    
Wind  
Wind Speed 10 mph (NE)    
Max Wind Speed 21 mph    
Max Gust Speed 28 mph    
Visibility 3 miles    
Events Rain    
T = Trace of Precipitation, MM = Missing Value Source: NWS Daily Summary

Daily Weather History Graph

Daily Weather History Graph

Search for Another Location

Airport or City:

Trip Planner

Search our weather history database for the weather conditions in past years. The results will help you decide how hot, cold, wet, or windy it might be!

Date:

Astronomy

Jan. 15, 2013 Rise Set
Actual Time 7:29 AM EST 5:29 PM EST
Civil Twilight 7:01 AM EST 5:57 PM EST
Nautical Twilight 6:30 AM EST 6:28 PM EST
Astronomical Twilight 5:59 AM EST 6:59 PM EST
Moon 9:44 AM EST (1/15) 10:06 PM EST (1/15)
Length of Visible Light 10h 55m
Length of Day
9h 59m
Waxing Crescent, 19% of the Moon is Illuminated
Jan 15
Waxing Crescent
Jan 18
First Quarter
Jan 26
Full
Feb 3
Last Quarter
Feb 10
New

Hourly Weather History & Observations

Time (EST) Temp. Windchill Dew Point Humidity Pressure Visibility Wind Dir Wind Speed Gust Speed Precip Events Conditions
12:29 AM 50.0 °F - 48.2 °F 94% 30.18 in 7.0 mi NNE 11.5 mph 25.3 mph 0.00 in Rain Light Rain
12:54 AM 48.9 °F - 46.9 °F 93% 30.17 in 3.0 mi NE 18.4 mph 25.3 mph 0.03 in Rain Light Rain
1:16 AM 48.2 °F - 44.6 °F 87% 30.18 in 5.0 mi NE 16.1 mph 25.3 mph 0.01 in Rain Light Rain
1:41 AM 46.4 °F 40.4 °F 44.6 °F 93% 30.18 in 5.0 mi NE 13.8 mph - 0.02 in Rain Light Rain
1:54 AM 46.0 °F 39.6 °F 45.0 °F 96% 30.17 in 5.0 mi ENE 15.0 mph - 0.02 in   Overcast
2:54 AM 46.0 °F 38.5 °F 44.1 °F 93% 30.16 in 2.5 mi East 19.6 mph - 0.01 in Rain Light Rain
3:03 AM 44.6 °F 38.4 °F 44.6 °F 100% 30.16 in 4.0 mi East 12.7 mph - 0.01 in Rain Light Rain
3:54 AM 45.0 °F 39.3 °F 44.1 °F 97% 30.15 in 10.0 mi ENE 11.5 mph - 0.01 in   Overcast
4:54 AM 45.0 °F 39.3 °F 43.0 °F 93% 30.13 in 6.0 mi ENE 11.5 mph - 0.00 in   Overcast
5:54 AM 44.1 °F 38.6 °F 43.0 °F 96% 30.13 in 3.0 mi ENE 10.4 mph - 0.00 in Rain Light Rain
6:03 AM 44.6 °F 39.2 °F 42.8 °F 93% 30.13 in 2.5 mi ENE 10.4 mph - 0.00 in Rain Light Rain
6:44 AM 44.6 °F 40.2 °F 42.8 °F 93% 30.14 in 2.5 mi NE 8.1 mph - 0.01 in Rain Light Rain
6:54 AM 44.1 °F 38.6 °F 43.0 °F 96% 30.15 in 2.5 mi NE 10.4 mph - 0.01 in Rain Light Rain
7:11 AM 44.6 °F 38.8 °F 42.8 °F 93% 30.15 in 1.5 mi ENE 11.5 mph - 0.02 in Rain Light Rain
7:34 AM 44.6 °F 40.7 °F 42.8 °F 93% 30.17 in 2.5 mi NE 6.9 mph - 0.04 in Rain Light Rain
7:54 AM 44.1 °F - 43.0 °F 96% 30.17 in 2.0 mi North - - 0.05 in Rain Light Rain
8:26 AM 44.6 °F 39.2 °F 42.8 °F 93% 30.20 in 1.2 mi NE 10.4 mph - 0.03 in Rain Light Rain
8:54 AM 44.1 °F 39.0 °F 44.1 °F 100% 30.21 in 3.0 mi NNE 9.2 mph - 0.05 in Rain Light Rain
9:54 AM 43.0 °F 37.2 °F 43.0 °F 100% 30.21 in 10.0 mi NE 10.4 mph - 0.00 in   Overcast
10:54 AM 43.0 °F 36.4 °F 43.0 °F 100% 30.21 in 5.0 mi ENE 12.7 mph - 0.00 in Rain Light Rain
11:47 AM 42.8 °F 37.0 °F 41.0 °F 93% 30.19 in 4.0 mi NE 10.4 mph - 0.00 in Rain Light Rain
11:54 AM 42.1 °F 36.1 °F 41.0 °F 96% 30.19 in 3.0 mi NE 10.4 mph - 0.00 in   Overcast
12:02 PM 42.8 °F 36.6 °F 41.0 °F 93% 30.19 in 2.5 mi NE 11.5 mph - 0.00 in Rain Light Rain
12:25 PM 42.8 °F 37.0 °F 41.0 °F 93% 30.18 in 3.0 mi NE 10.4 mph - 0.00 in   Overcast
12:54 PM 41.0 °F 33.5 °F 39.9 °F 96% 30.17 in 3.0 mi ENE 13.8 mph - 0.00 in   Overcast
1:36 PM 41.0 °F 34.3 °F 39.2 °F 93% 30.15 in 2.0 mi NE 11.5 mph - 0.00 in Rain Light Rain
1:54 PM 39.9 °F 32.9 °F 39.0 °F 97% 30.16 in 2.0 mi NE 11.5 mph - 0.00 in Rain Light Rain
2:36 PM 39.2 °F 31.2 °F 39.2 °F 100% 30.14 in 1.2 mi ENE 13.8 mph - 0.00 in   Overcast
2:54 PM 39.9 °F 32.5 °F 39.0 °F 97% 30.15 in 2.0 mi ENE 12.7 mph - 0.00 in   Overcast
3:54 PM 39.9 °F 34.5 °F 39.0 °F 97% 30.15 in 2.0 mi NE 8.1 mph - 0.00 in   Overcast
4:06 PM 39.2 °F 32.5 °F 39.2 °F 100% 30.15 in 1.8 mi NE 10.4 mph - N/A   Overcast
4:44 PM 39.2 °F 33.6 °F 39.2 °F 100% 30.15 in 2.0 mi ENE 8.1 mph - N/A   Overcast
4:54 PM 39.9 °F 34.5 °F 39.0 °F 97% 30.16 in 2.0 mi NE 8.1 mph - 0.00 in   Light Drizzle
5:43 PM 39.2 °F 33.6 °F 39.2 °F 100% 30.15 in 1.5 mi NE 8.1 mph - 0.00 in   Light Drizzle
5:54 PM 39.9 °F 34.5 °F 39.0 °F 97% 30.16 in 1.0 mi NE 8.1 mph - 0.00 in   Light Drizzle
6:54 PM 39.9 °F 33.4 °F 39.0 °F 97% 30.14 in 1.2 mi ENE 10.4 mph - 0.00 in   Light Drizzle
7:54 PM 39.9 °F 33.9 °F 39.9 °F 100% 30.13 in 1.2 mi ENE 9.2 mph - 0.00 in   Light Drizzle
8:54 PM 39.9 °F 34.5 °F 39.9 °F 100% 30.12 in 1.0 mi NE 8.1 mph - 0.00 in   Light Drizzle
9:54 PM 41.0 °F 39.0 °F 39.9 °F 96% 30.11 in 1.0 mi North 3.5 mph - 0.01 in   Light Drizzle
10:54 PM 39.9 °F 34.5 °F 39.0 °F 97% 30.08 in 1.0 mi NE 8.1 mph - 0.00 in   Light Drizzle
11:27 PM 41.0 °F 38.0 °F 39.2 °F 93% 30.08 in 1.5 mi North 4.6 mph - 0.00 in   Light Drizzle
11:54 PM 39.9 °F 35.1 °F 39.9 °F 100% 30.07 in 1.5 mi NE 6.9 mph - 0.00 in   Light Drizzle